KAL1405 RKSI-RKPK

Flight info

Callsign KAL1405
Flight time 0h 35m
Altitude 25000
Route OSPOT Y782 TGU Z83 MASTA
Aircraft B739/M-SDE2E3FGHIRWXY/LB1

Departure

Time 2026-05-05 13:31
Airport Incheon International Airport (RKSI)

Arrival

Time 2026-05-05 14:06
Airport Gimhae International Airport (RKPK)
Time Latitude Longitude Altitude Speed Heading
2026-05-05 13:01 37.46368 126.43375 32 ft 0 kts 235°
2026-05-05 13:14 37.46377 126.43392 30 ft 3 kts 235°
2026-05-05 13:14 37.46391 126.43416 32 ft 3 kts 235°
2026-05-05 13:15 37.46404 126.43440 31 ft 3 kts 235°
2026-05-05 13:15 37.46416 126.43462 31 ft 3 kts 226°
2026-05-05 13:15 37.46433 126.43474 31 ft 3 kts 177°
2026-05-05 13:15 37.46454 126.43466 30 ft 3 kts 147°
2026-05-05 13:16 37.46463 126.43459 30 ft 1 kts 146°
2026-05-05 13:16 37.46463 126.43458 30 ft 1 kts 146°
2026-05-05 13:18 37.46454 126.43466 30 ft 2 kts 146°
2026-05-05 13:19 37.46442 126.43476 31 ft 3 kts 146°
2026-05-05 13:19 37.46414 126.43501 29 ft 6 kts 144°
2026-05-05 13:19 37.46380 126.43532 32 ft 6 kts 144°
2026-05-05 13:19 37.46347 126.43561 32 ft 6 kts 144°
2026-05-05 13:20 37.46314 126.43590 32 ft 6 kts 145°
2026-05-05 13:20 37.46282 126.43619 30 ft 6 kts 145°
2026-05-05 13:20 37.46250 126.43647 31 ft 6 kts 145°
2026-05-05 13:20 37.46219 126.43675 32 ft 6 kts 144°
2026-05-05 13:21 37.46178 126.43711 32 ft 8 kts 145°
2026-05-05 13:21 37.46147 126.43769 32 ft 8 kts 91°
2026-05-05 13:21 37.46172 126.43833 31 ft 8 kts 54°
2026-05-05 13:21 37.46205 126.43889 32 ft 8 kts 54°
2026-05-05 13:22 37.46236 126.43944 32 ft 8 kts 54°
2026-05-05 13:22 37.46266 126.43997 32 ft 7 kts 54°
2026-05-05 13:22 37.46303 126.44062 32 ft 11 kts 54°
2026-05-05 13:22 37.46349 126.44145 30 ft 12 kts 54°
2026-05-05 13:23 37.46395 126.44226 32 ft 11 kts 54°
2026-05-05 13:23 37.46440 126.44306 32 ft 11 kts 54°
2026-05-05 13:23 37.46484 126.44383 32 ft 11 kts 54°
2026-05-05 13:23 37.46526 126.44458 32 ft 10 kts 56°
2026-05-05 13:24 37.46559 126.44536 32 ft 10 kts 60°
2026-05-05 13:24 37.46608 126.44593 32 ft 10 kts 13°
2026-05-05 13:24 37.46668 126.44561 32 ft 10 kts 325°
2026-05-05 13:24 37.46721 126.44513 32 ft 9 kts 324°
2026-05-05 13:25 37.46773 126.44467 31 ft 9 kts 324°
2026-05-05 13:25 37.46824 126.44422 32 ft 9 kts 324°
2026-05-05 13:25 37.46877 126.44374 32 ft 11 kts 324°
2026-05-05 13:25 37.46946 126.44314 31 ft 13 kts 324°
2026-05-05 13:26 37.47025 126.44242 32 ft 14 kts 324°
2026-05-05 13:26 37.47106 126.44171 32 ft 14 kts 324°
2026-05-05 13:26 37.47183 126.44102 32 ft 13 kts 324°
2026-05-05 13:26 37.47257 126.44037 32 ft 13 kts 324°
2026-05-05 13:27 37.47304 126.43994 31 ft 13 kts 324°
2026-05-05 13:27 37.47375 126.43932 31 ft 12 kts 324°
2026-05-05 13:27 37.47467 126.43850 31 ft 12 kts 324°
2026-05-05 13:27 37.47511 126.43811 31 ft 12 kts 324°
2026-05-05 13:28 37.47576 126.43752 30 ft 11 kts 324°
2026-05-05 13:28 37.47661 126.43677 30 ft 11 kts 324°
2026-05-05 13:28 37.47704 126.43639 30 ft 11 kts 324°
2026-05-05 13:28 37.47779 126.43572 32 ft 15 kts 324°
2026-05-05 13:29 37.47868 126.43492 31 ft 15 kts 324°
2026-05-05 13:29 37.47949 126.43420 30 ft 12 kts 324°
2026-05-05 13:29 37.48023 126.43404 32 ft 11 kts 32°
2026-05-05 13:29 37.48072 126.43481 32 ft 11 kts 54°
2026-05-05 13:30 37.48116 126.43560 32 ft 11 kts 54°
2026-05-05 13:30 37.48145 126.43644 32 ft 11 kts 96°
2026-05-05 13:30 37.48090 126.43713 32 ft 19 kts 144°
2026-05-05 13:30 37.47771 126.43997 29 ft 97 kts 144°
2026-05-05 13:31 37.47029 126.44653 65 ft 158 kts 146°
2026-05-05 13:31 37.46091 126.45501 708 ft 166 kts 146°
2026-05-05 13:31 37.45130 126.46314 1622 ft 166 kts 146°
2026-05-05 13:31 37.44372 126.47543 2125 ft 194 kts 127°
2026-05-05 13:32 37.43526 126.48997 2360 ft 218 kts 133°
2026-05-05 13:32 37.42521 126.50543 2699 ft 236 kts 133°
2026-05-05 13:32 37.41428 126.52188 3027 ft 256 kts 133°
2026-05-05 13:32 37.40251 126.53947 3640 ft 267 kts 133°
2026-05-05 13:33 37.39043 126.55746 4458 ft 271 kts 132°
2026-05-05 13:33 37.37815 126.57563 4875 ft 273 kts 135°
2026-05-05 13:33 37.36296 126.58944 5031 ft 268 kts 161°
2026-05-05 13:33 37.34543 126.59711 5478 ft 268 kts 163°
2026-05-05 13:34 37.32952 126.60994 6202 ft 280 kts 134°
2026-05-05 13:34 37.31693 126.62875 7024 ft 283 kts 131°
2026-05-05 13:34 37.30451 126.64817 7835 ft 286 kts 130°
2026-05-05 13:34 37.29199 126.66778 8655 ft 289 kts 130°
2026-05-05 13:35 37.27928 126.68752 9470 ft 292 kts 130°
2026-05-05 13:35 37.26639 126.70739 10246 ft 296 kts 130°
2026-05-05 13:35 37.25287 126.72806 10526 ft 318 kts 130°
2026-05-05 13:35 37.23826 126.75027 10703 ft 341 kts 130°
2026-05-05 13:36 37.22266 126.77391 10954 ft 360 kts 130°
2026-05-05 13:36 37.20652 126.79831 11550 ft 366 kts 130°
2026-05-05 13:36 37.19022 126.82291 12300 ft 367 kts 130°
2026-05-05 13:36 37.17380 126.84765 13039 ft 369 kts 130°
2026-05-05 13:37 37.15731 126.87247 13759 ft 372 kts 129°
2026-05-05 13:37 37.14066 126.89750 14355 ft 376 kts 129°
2026-05-05 13:37 37.12382 126.92278 14938 ft 380 kts 129°
2026-05-05 13:37 37.10682 126.94828 15536 ft 383 kts 129°
2026-05-05 13:38 37.08968 126.97398 16140 ft 386 kts 130°
2026-05-05 13:38 37.07235 126.99994 16731 ft 390 kts 130°
2026-05-05 13:38 37.05489 127.02606 17305 ft 393 kts 130°
2026-05-05 13:38 37.03728 127.05239 17881 ft 396 kts 130°
2026-05-05 13:39 37.01952 127.07893 18431 ft 399 kts 130°
2026-05-05 13:39 37.00160 127.10568 18922 ft 403 kts 130°
2026-05-05 13:39 36.98355 127.13260 19426 ft 406 kts 130°
2026-05-05 13:39 36.96534 127.15975 19925 ft 409 kts 130°
2026-05-05 13:40 36.94700 127.18707 20435 ft 411 kts 130°
2026-05-05 13:40 36.92854 127.21454 20928 ft 414 kts 130°
2026-05-05 13:40 36.90994 127.24221 21403 ft 418 kts 130°
2026-05-05 13:40 36.89114 127.27014 21878 ft 421 kts 130°
2026-05-05 13:41 36.87223 127.29822 22343 ft 424 kts 130°
2026-05-05 13:41 36.85314 127.32653 22807 ft 427 kts 130°
2026-05-05 13:41 36.83400 127.35440 23253 ft 431 kts 133°
2026-05-05 13:41 36.81299 127.38122 23701 ft 434 kts 135°
2026-05-05 13:42 36.79124 127.40745 24078 ft 437 kts 136°
2026-05-05 13:42 36.76920 127.43376 24455 ft 439 kts 136°
2026-05-05 13:42 36.74720 127.46033 24828 ft 442 kts 136°
2026-05-05 13:42 36.72517 127.48720 25100 ft 445 kts 136°
2026-05-05 13:43 36.70298 127.51438 25090 ft 448 kts 136°
2026-05-05 13:43 36.68079 127.54155 25112 ft 445 kts 136°
2026-05-05 13:43 36.65876 127.56849 25095 ft 443 kts 136°
2026-05-05 13:43 36.63673 127.59540 25112 ft 444 kts 136°
2026-05-05 13:44 36.61467 127.62232 25112 ft 445 kts 136°
2026-05-05 13:44 36.59254 127.64930 25113 ft 445 kts 136°
2026-05-05 13:44 36.57039 127.67629 25110 ft 446 kts 136°
2026-05-05 13:44 36.54823 127.70327 25116 ft 446 kts 136°
2026-05-05 13:45 36.52608 127.73022 25119 ft 446 kts 136°
2026-05-05 13:45 36.50386 127.75724 25120 ft 447 kts 136°
2026-05-05 13:45 36.48165 127.78422 25128 ft 447 kts 136°
2026-05-05 13:45 36.45943 127.81117 25123 ft 446 kts 136°
2026-05-05 13:46 36.43721 127.83813 25127 ft 446 kts 136°
2026-05-05 13:46 36.41501 127.86509 25124 ft 446 kts 136°
2026-05-05 13:46 36.39285 127.89201 25130 ft 446 kts 136°
2026-05-05 13:46 36.37073 127.91886 25127 ft 445 kts 136°
2026-05-05 13:47 36.34861 127.94569 25128 ft 445 kts 136°
2026-05-05 13:47 36.32647 127.97253 25130 ft 445 kts 136°
2026-05-05 13:47 36.30437 127.99929 25126 ft 444 kts 136°
2026-05-05 13:47 36.28223 128.02606 25128 ft 444 kts 136°
2026-05-05 13:48 36.26009 128.05279 25127 ft 444 kts 137°
2026-05-05 13:48 36.23794 128.07948 25122 ft 444 kts 137°
2026-05-05 13:48 36.21576 128.10615 25130 ft 444 kts 137°
2026-05-05 13:48 36.19360 128.13281 25122 ft 445 kts 137°
2026-05-05 13:49 36.17162 128.15923 25108 ft 433 kts 137°
2026-05-05 13:49 36.15040 128.18474 25109 ft 419 kts 137°
2026-05-05 13:49 36.12988 128.20939 25123 ft 415 kts 137°
2026-05-05 13:49 36.10910 128.23429 25140 ft 417 kts 137°
2026-05-05 13:50 36.08820 128.25933 24823 ft 420 kts 137°
2026-05-05 13:50 36.06702 128.28469 24358 ft 418 kts 137°
2026-05-05 13:50 36.04651 128.30923 23865 ft 414 kts 137°
2026-05-05 13:50 36.02588 128.33390 23284 ft 410 kts 137°
2026-05-05 13:51 36.00548 128.35829 22711 ft 407 kts 137°
2026-05-05 13:51 35.98524 128.38246 22161 ft 402 kts 137°
2026-05-05 13:51 35.96523 128.40635 21630 ft 398 kts 137°
2026-05-05 13:51 35.94540 128.43000 21100 ft 395 kts 137°
2026-05-05 13:52 35.92576 128.45339 20591 ft 391 kts 137°
2026-05-05 13:52 35.90624 128.47664 20078 ft 388 kts 137°
2026-05-05 13:52 35.88690 128.49965 19584 ft 385 kts 137°
2026-05-05 13:52 35.86771 128.52247 19086 ft 382 kts 137°
2026-05-05 13:53 35.84864 128.54512 18595 ft 379 kts 137°
2026-05-05 13:53 35.82948 128.56731 18047 ft 376 kts 143°
2026-05-05 13:53 35.80698 128.58288 17521 ft 369 kts 162°
2026-05-05 13:53 35.78217 128.58902 17084 ft 361 kts 180°
2026-05-05 13:54 35.75729 128.58767 16621 ft 356 kts 185°
2026-05-05 13:54 35.73268 128.58512 16133 ft 354 kts 186°
2026-05-05 13:54 35.70827 128.58244 15660 ft 351 kts 186°
2026-05-05 13:54 35.68404 128.57989 15193 ft 348 kts 186°
2026-05-05 13:55 35.65999 128.57749 14737 ft 345 kts 186°
2026-05-05 13:55 35.63619 128.57523 14286 ft 342 kts 185°
2026-05-05 13:55 35.61251 128.57303 13811 ft 340 kts 185°
2026-05-05 13:55 35.58898 128.57088 13284 ft 338 kts 185°
2026-05-05 13:56 35.56552 128.56875 12756 ft 337 kts 185°
2026-05-05 13:56 35.54224 128.56664 12271 ft 334 kts 185°
2026-05-05 13:56 35.51912 128.56455 11811 ft 332 kts 186°
2026-05-05 13:56 35.49618 128.56247 11349 ft 329 kts 186°
2026-05-05 13:57 35.47334 128.56213 10877 ft 329 kts 174°
2026-05-05 13:57 35.45105 128.56777 10611 ft 322 kts 168°
2026-05-05 13:57 35.42993 128.57395 10487 ft 311 kts 168°
2026-05-05 13:57 35.40923 128.58001 10345 ft 300 kts 168°
2026-05-05 13:58 35.38901 128.58582 10214 ft 290 kts 169°
2026-05-05 13:58 35.37136 128.59082 10100 ft 281 kts 169°
2026-05-05 13:58 35.35254 128.59608 9841 ft 276 kts 169°
2026-05-05 13:58 35.33391 128.60124 9541 ft 273 kts 169°
2026-05-05 13:59 35.29707 128.61140 8884 ft 270 kts 169°
2026-05-05 13:59 35.27883 128.61641 8558 ft 268 kts 169°
2026-05-05 14:00 35.24287 128.62628 7941 ft 265 kts 169°
2026-05-05 14:00 35.23074 128.62961 7718 ft 264 kts 169°
2026-05-05 14:00 35.20821 128.63991 7393 ft 262 kts 143°
2026-05-05 14:00 35.19678 128.65720 7167 ft 266 kts 117°
2026-05-05 14:01 35.19154 128.67913 7115 ft 274 kts 102°
2026-05-05 14:01 35.18841 128.70244 6894 ft 281 kts 100°
2026-05-05 14:01 35.18584 128.72601 6650 ft 278 kts 99°
2026-05-05 14:01 35.18352 128.74928 6401 ft 274 kts 99°
2026-05-05 14:02 35.18092 128.77201 6265 ft 265 kts 101°
2026-05-05 14:02 35.17796 128.79377 6179 ft 254 kts 102°
2026-05-05 14:02 35.17511 128.81453 6082 ft 241 kts 101°
2026-05-05 14:02 35.17249 128.83395 5995 ft 222 kts 101°
2026-05-05 14:03 35.17011 128.85178 5832 ft 203 kts 102°
2026-05-05 14:03 35.16794 128.86794 5582 ft 186 kts 102°
2026-05-05 14:03 35.16783 128.88373 4994 ft 190 kts 74°
2026-05-05 14:03 35.17601 128.89547 4420 ft 188 kts 25°
2026-05-05 14:04 35.18898 128.89817 3884 ft 182 kts 351°
2026-05-05 14:04 35.20097 128.89561 3498 ft 172 kts 349°
2026-05-05 14:04 35.21243 128.89657 3195 ft 156 kts 14°
2026-05-05 14:04 35.22128 128.90373 2617 ft 158 kts 62°
2026-05-05 14:05 35.22206 128.91643 1909 ft 160 kts 116°
2026-05-05 14:05 35.21606 128.92739 1307 ft 155 kts 138°
2026-05-05 14:05 35.20669 128.93346 643 ft 153 kts 174°
2026-05-05 14:05 35.19645 128.93486 247 ft 142 kts 176°
2026-05-05 14:06 35.18667 128.93604 42 ft 137 kts 174°
2026-05-05 14:06 35.17810 128.93714 27 ft 106 kts 174°
2026-05-05 14:06 35.17222 128.93789 25 ft 64 kts 174°
2026-05-05 14:06 35.16954 128.93874 21 ft 17 kts 111°
2026-05-05 14:07 35.16955 128.93982 21 ft 13 kts 84°
2026-05-05 14:07 35.16964 128.94087 21 ft 12 kts 84°
2026-05-05 14:07 35.16972 128.94190 22 ft 12 kts 82°
2026-05-05 14:07 35.16981 128.94290 24 ft 12 kts 85°
2026-05-05 14:08 35.16990 128.94388 22 ft 11 kts 84°
2026-05-05 14:08 35.16998 128.94483 23 ft 11 kts 84°
2026-05-05 14:08 35.16983 128.94569 22 ft 11 kts 114°
2026-05-05 14:08 35.16954 128.94647 22 ft 8 kts 124°
2026-05-05 14:09 35.16908 128.94667 24 ft 7 kts 191°
2026-05-05 14:09 35.16874 128.94651 24 ft 1 kts 203°
2026-05-05 14:09 35.16871 128.94649 24 ft 0 kts 203°